When you browse on this site, cookies collect data to enhance your experience and personalize the content and advertising you see.
Visit our Privacy Policy to learn more. By continuing to use the site, you agree to this use of cookies and data.
  • In Lithuania
  • List of Countries
  • For 7 days
  • Water Temperature
  • Satellite Maps
  • Weather Map
  • Weather Widgets
  • user-avatar
    Login

    Hourly Weather Kovalevka

    Today, 13 December, Thursday

    Time Temperature Precipitation Wind Pressure Humidity
    00:00 +2°C° 0 mm 3 mps 752 mmHg 84%
    01:00 +1°C° 0 mm 3 mps 752 mmHg 85%
    02:00 +1°C° 0 mm 3 mps 752 mmHg 85%
    03:00 0°C° 0 mm 3 mps 752 mmHg 86%
    04:00 0°C° 0 mm 3 mps 753 mmHg 87%
    05:00 0°C° 0 mm 3 mps 753 mmHg 87%
    06:00 0°C° 0 mm 3 mps 753 mmHg 87%
    07:00 0°C° 0 mm 3 mps 754 mmHg 87%
    08:00 +1°C° 0 mm 2 mps 754 mmHg 86%
    09:00 +1°C° 0 mm 2 mps 754 mmHg 86%
    10:00 +1°C° 0 mm 3 mps 755 mmHg 82%
    11:00 +1°C° 0 mm 3 mps 755 mmHg 79%
    12:00 +1°C° 0 mm 4 mps 756 mmHg 75%
    13:00 +2°C° 0 mm 3 mps 756 mmHg 75%
    14:00 +2°C° 0 mm 3 mps 756 mmHg 75%
    15:00 +2°C° 0 mm 3 mps 756 mmHg 74%
    16:00 +3°C° 0 mm 2 mps 756 mmHg 77%
    17:00 +2°C° 0 mm 2 mps 757 mmHg 79%
    18:00 +2°C° 0 mm 1 mps 757 mmHg 82%
    19:00 +2°C° 0 mm 1 mps 758 mmHg 83%
    20:00 +2°C° 0 mm 1 mps 758 mmHg 84%
    21:00 +1°C° 0 mm 2 mps 758 mmHg 85%
    22:00 +2°C° 0 mm 1 mps 758 mmHg 86%
    23:00 +2°C° 0 mm 1 mps 758 mmHg 86%

    Tomorrow, 14 December, Friday

    Time Temperature Precipitation Wind Pressure Humidity
    00:00 +2°C° 0 mm 1 mps 758 mmHg 87%
    01:00 +2°C° 0 mm 1 mps 758 mmHg 87%
    02:00 +1°C° 0 mm 1 mps 758 mmHg 87%
    03:00 +1°C° 0 mm 1 mps 758 mmHg 87%
    04:00 +1°C° 0 mm 1 mps 759 mmHg 87%
    05:00 +1°C° 0 mm 1 mps 759 mmHg 87%
    06:00 +1°C° 0 mm 1 mps 759 mmHg 87%
    07:00 +2°C° 0 mm 1 mps 759 mmHg 87%
    08:00 +2°C° 0 mm 1 mps 759 mmHg 87%
    09:00 +2°C° 0 mm 1 mps 759 mmHg 87%
    10:00 +3°C° 0 mm 1 mps 759 mmHg 84%
    11:00 +3°C° 0 mm 1 mps 759 mmHg 81%
    12:00 +4°C° 0 mm 1 mps 759 mmHg 78%
    13:00 +4°C° 0 mm 1 mps 759 mmHg 79%
    14:00 +4°C° 0 mm 1 mps 760 mmHg 80%
    15:00 +5°C° 0 mm 1 mps 760 mmHg 81%
    16:00 +4°C° 0 mm 1 mps 760 mmHg 84%
    17:00 +3°C° 0 mm 1 mps 760 mmHg 86%
    18:00 +2°C° 0 mm 1 mps 760 mmHg 89%
    19:00 +2°C° 0 mm 1 mps 760 mmHg 90%
    20:00 +2°C° 0 mm 1 mps 760 mmHg 90%
    21:00 +1°C° 0 mm 1 mps 761 mmHg 91%
    22:00 +1°C° 0 mm 1 mps 761 mmHg 91%
    23:00 +1°C° 0 mm 1 mps 761 mmHg 91%

    Day after tomorrow, 15 December, Saturday

    Time Temperature Precipitation Wind Pressure Humidity
    00:00 -1°C° 0 mm 2 mps 761 mmHg 91%
    01:00 -1°C° 0 mm 2 mps 761 mmHg 91%
    02:00 -1°C° 0 mm 2 mps 762 mmHg 90%
    03:00 -1°C° 0 mm 2 mps 762 mmHg 90%
    04:00 -1°C° 0 mm 2 mps 762 mmHg 89%
    05:00 -1°C° 0 mm 2 mps 762 mmHg 89%
    06:00 +1°C° 0 mm 1 mps 762 mmHg 89%
    07:00 +1°C° 0 mm 1 mps 762 mmHg 87%
    08:00 +1°C° 0 mm 1 mps 763 mmHg 86%
    09:00 +1°C° 0 mm 1 mps 763 mmHg 85%
    10:00 +2°C° 0 mm 1 mps 763 mmHg 81%
    11:00 +3°C° 0 mm 1 mps 763 mmHg 76%
    12:00 +4°C° 0 mm 1 mps 763 mmHg 72%
    13:00 +4°C° 0 mm 1 mps 763 mmHg 73%
    14:00 +4°C° 0 mm 1 mps 764 mmHg 74%
    15:00 +4°C° 0 mm 1 mps 764 mmHg 74%
    16:00 +3°C° 0 mm 1 mps 764 mmHg 78%
    17:00 +2°C° 0 mm 1 mps 764 mmHg 82%
    18:00 -1°C° 0 mm 2 mps 764 mmHg 86%
    19:00 -1°C° 0 mm 2 mps 765 mmHg 87%
    20:00 -2°C° 0 mm 2 mps 765 mmHg 87%
    21:00 -2°C° 0 mm 2 mps 765 mmHg 88%
    22:00 -2°C° 0 mm 2 mps 765 mmHg 88%
    23:00 -3°C° 0 mm 2 mps 765 mmHg 87%

    16 December, Sunday

    Time Temperature Precipitation Wind Pressure Humidity
    00:00 -4°C° 0 mm 3 mps 765 mmHg 86%
    01:00 -4°C° 0 mm 3 mps 765 mmHg 85%
    02:00 -4°C° 0 mm 3 mps 765 mmHg 84%
    03:00 -4°C° 0 mm 3 mps 766 mmHg 83%
    04:00 -4°C° 0 mm 3 mps 765 mmHg 84%
    05:00 -4°C° 0 mm 3 mps 765 mmHg 84%
    06:00 -4°C° 0 mm 4 mps 765 mmHg 84%
    07:00 -4°C° 0 mm 4 mps 765 mmHg 83%
    08:00 -4°C° 0 mm 4 mps 765 mmHg 83%
    09:00 -5°C° 0 mm 5 mps 766 mmHg 82%
    10:00 -5°C° 0 mm 5 mps 765 mmHg 79%
    11:00 -4°C° 0 mm 5 mps 765 mmHg 77%
    12:00 -4°C° 0 mm 5 mps 765 mmHg 74%
    13:00 -4°C° 0 mm 5 mps 765 mmHg 74%
    14:00 -4°C° 0 mm 6 mps 764 mmHg 73%
    15:00 -4°C° 0 mm 6 mps 764 mmHg 73%
    16:00 -4°C° 0 mm 6 mps 764 mmHg 76%
    17:00 -5°C° 0 mm 6 mps 764 mmHg 78%
    18:00 -5°C° 0 mm 6 mps 764 mmHg 81%
    19:00 -5°C° 0 mm 6 mps 764 mmHg 81%
    20:00 -6°C° 0 mm 7 mps 764 mmHg 81%
    21:00 -7°C° 0 mm 7 mps 764 mmHg 81%
    22:00 -7°C° 0 mm 7 mps 764 mmHg 81%
    23:00 -7°C° 0 mm 7 mps 764 mmHg 81%

    17 December, Monday

    Time Temperature Precipitation Wind Pressure Humidity
    00:00 -7°C° 0 mm 7 mps 764 mmHg 80%
    01:00 -7°C° 0 mm 7 mps 764 mmHg 79%
    02:00 -7°C° 0 mm 7 mps 763 mmHg 78%
    03:00 -7°C° 0 mm 7 mps 763 mmHg 76%
    04:00 -8°C° 0 mm 7 mps 763 mmHg 75%
    05:00 -8°C° 0 mm 7 mps 763 mmHg 73%
    06:00 -8°C° 0 mm 7 mps 763 mmHg 72%
    07:00 -8°C° 0 mm 7 mps 763 mmHg 71%
    08:00 -8°C° 0 mm 7 mps 763 mmHg 70%
    09:00 -8°C° 0 mm 7 mps 763 mmHg 69%
    10:00 -8°C° 0 mm 7 mps 763 mmHg 67%
    11:00 -7°C° 0 mm 7 mps 763 mmHg 64%
    12:00 -7°C° 0 mm 8 mps 762 mmHg 61%
    13:00 -7°C° 0 mm 7 mps 762 mmHg 61%
    14:00 -7°C° 0 mm 7 mps 762 mmHg 60%
    15:00 -6°C° 0 mm 7 mps 762 mmHg 60%
    16:00 -7°C° 0 mm 7 mps 762 mmHg 62%
    17:00 -8°C° 0 mm 7 mps 762 mmHg 64%
    18:00 -8°C° 0 mm 7 mps 762 mmHg 66%
    19:00 -8°C° 0 mm 7 mps 762 mmHg 68%
    20:00 -9°C° 0 mm 7 mps 762 mmHg 69%
    21:00 -9°C° 0 mm 7 mps 762 mmHg 71%
    22:00 -9°C° 0 mm 7 mps 762 mmHg 72%
    23:00 -9°C° 0 mm 7 mps 762 mmHg 73%

    18 December, Tuesday

    Time Temperature Precipitation Wind Pressure Humidity
    00:00 -9°C° 0 mm 7 mps 762 mmHg 74%
    01:00 -9°C° 0 mm 7 mps 762 mmHg 76%
    02:00 -9°C° 0 mm 7 mps 762 mmHg 77%
    03:00 -9°C° 0 mm 7 mps 762 mmHg 78%
    04:00 -9°C° 0 mm 7 mps 762 mmHg 78%
    05:00 -9°C° 0 mm 7 mps 762 mmHg 79%
    06:00 -9°C° 0 mm 7 mps 762 mmHg 79%
    07:00 -9°C° 0 mm 7 mps 762 mmHg 78%
    08:00 -9°C° 0 mm 7 mps 762 mmHg 78%
    09:00 -9°C° 0 mm 7 mps 763 mmHg 78%
    10:00 -8°C° 0 mm 7 mps 762 mmHg 76%
    11:00 -8°C° 0 mm 8 mps 762 mmHg 74%
    12:00 -7°C° 0 mm 8 mps 762 mmHg 73%
    13:00 -7°C° 0 mm 8 mps 762 mmHg 73%
    14:00 -7°C° 0 mm 7 mps 762 mmHg 73%
    15:00 -6°C° 0 mm 7 mps 762 mmHg 73%
    16:00 -6°C° 0 mm 7 mps 762 mmHg 74%
    17:00 -6°C° 0 mm 7 mps 762 mmHg 75%
    18:00 -6°C° 0 mm 7 mps 762 mmHg 76%
    19:00 -6°C° 0 mm 7 mps 762 mmHg 77%
    20:00 -6°C° 0 mm 7 mps 762 mmHg 77%
    21:00 -6°C° 0 mm 7 mps 762 mmHg 78%
    22:00 -6°C° 0 mm 7 mps 762 mmHg 79%
    23:00 -6°C° 0 mm 7 mps 762 mmHg 79%
    Show more